{"data":{"norad_id":62744,"intl_designator":"2025-014K","name":"STARLINK-32758","alt_names":[],"object_type":"PAYLOAD","status":"ACTIVE","operator":null,"country":"US","launch_date":"2025-01-21","launch_site_code":"AFETR","launch_vehicle":null,"mission":null,"orbit_class":"UNKNOWN","rcs_meters":null,"size_class":null,"mass_kg":null,"dimensions":null,"purposes":["comms"],"wikipedia_slug":null,"has_3d_model":false,"image_url":null,"decayed_at":null,"tle_current":{"epoch":"2026-05-24T23:11:33.033120Z","epoch_age_seconds":81459,"freshness":"FRESH","line1":"1 62744U 25014K   26144.96635455  .00014986  00000+0  55278-3 0  9992","line2":"2 62744  43.0037  87.0172 0001346 251.2592 108.8113 15.27592960 74882","mean_motion":15.2759296,"eccentricity":0.0001346,"inclination_deg":43.0037,"raan_deg":87.0172,"arg_perigee_deg":251.2592,"mean_anomaly_deg":108.8113,"bstar":0.00055278,"rev_number":7488,"period_min":94.265948960645,"perigee_km":482.08677898653,"apogee_km":483.93379983684,"semimajor_km":6861.1472894117,"source":"CELESTRAK","updated_at":"2026-05-25T13:38:19.739996Z"}}}